Regional Weather Roundup
Issued by NWS

Home | Current Version | Previous Version | Graphics & Text | Print | Product List | Glossary On
Versions: 1 2 3 4 5 6 7 8 9 10 11 12 13 14 15 16 17 18 19 20 21 22 23 24 25 26 27 28 29 30 31 32 33 34 35 36 37 38 39 40 41 42 43 44 45 46 47 48 49 50
000
ASUS43 KTOP 180959
RWRKS

WEATHER ROUNDUP FOR KANSAS
NATIONAL WEATHER SERVICE GOODLAND KS
500 AM CDT THU SEP 18 2014

NOTE:  "FAIR" INDICATES FEW OR NO CLOUDS BELOW 12,000 FEET WITH NO
SIGNIFICANT WEATHER AND/OR OBSTRUCTIONS TO VISIBILITY.

KSZ001>006-013>018-027>032-041>047-181100-
NORTHWEST KANSAS

CITY           SKY/WX    TMP DP  RH WIND       PRES   REMARKS
GOODLAND       FOG       63  63 100 CALM      29.96F VSB 1/4
HAYS           CLOUDY    66  63  88 E12       29.91F
HILL CITY      CLOUDY    64  63  96 E8        29.92S FOG
RUSSELL        CLOUDY    68  65  90 E7        29.89F
$$

KSZ061>065-074>080-084>089-181100-
SOUTHWEST KANSAS

CITY           SKY/WX    TMP DP  RH WIND       PRES   REMARKS
DODGE CITY     CLEAR     65  58  78 SW8       29.90F
ELKHART          N/A     63  53  70 SW9         N/A
GARDEN CITY    CLEAR     59  55  87 SW7       29.91F
GREAT BEND     CLOUDY    70  64  83 E10       29.90F
LIBERAL        CLEAR     63  55  77 W10       29.94F
$$

KSZ066>073-081>083-090>101-181100-
SOUTHEAST KANSAS

CITY           SKY/WX    TMP DP  RH WIND       PRES   REMARKS
CHANUTE        TSTM      64  63  96 W7        29.98F FOG
COFFEYVILLE    CLOUDY    67  63  87 E13       29.98R THUNDER
HUTCHINSON     CLOUDY    70  67  90 E13       29.89F FOG
NEWTON         CLOUDY    68  63  83 E14G21    29.93F
PARSONS        LGT RAIN  67  64  90 NE14G22   30.01R
WICHITA INTL   MOCLDY    72  67  84 E8        29.88R
WICHITA JABRA  PTCLDY    68  66  93 E8        29.89S
WICHITA MCCONL PTCLDY    70  70 100 E8        29.90R
WINFIELD       PTCLDY    74  69  85 S9        29.89R
$$

KSZ007>012-019>026-033>040-048>060-102>105-181100-
NORTHEAST KANSAS

CITY           SKY/WX    TMP DP  RH WIND       PRES   REMARKS
CONCORDIA      CLOUDY    63  63 100 E10       29.92S FOG
EMPORIA        TSTM      64  63  96 W13G24    29.97R FOG
LAWRENCE       CLOUDY    63  62  97 E6        29.96S FOG
MANHATTAN      CLOUDY    66  64  93 E10       29.92R
OLATHE IND     CLOUDY    63  62  97 E8        29.97F
OLATHE EXE     CLOUDY    62  61  96 E7        29.96F FOG
SALINA         MOCLDY    64  61  90 NE5       29.90R
TOPEKA BILLARD CLOUDY    65  65 100 E8        29.95F FOG
TOPEKA FORBES  CLOUDY    65  64  97 E6        29.96R FOG
$$



USA.gov is the U.S. government's official web portal to all federal, state and local government web resources and services.